Showing default

KUIPER-00452, 68946

Orbit data source: Space-Track

KUIPER-00452, 68946 is a payload satellite owned by Kuiper Systems (US) in LEO that was launched on Thu, 30 Apr 2026 UTC via an ARIANE 64 launch vehicle from the French Guiana (FRGUI). Payload-class satellites include a variety of spacecraft equipped with specific instruments for various scientific and technological missions. These include communications satellites like Starlink; space stations such as the ISS; scientific satellites like the Hubble; Earth observation satellites from companies like Planet Labs, Umbra, and HawkEye 360; GPS; miniature CubeSats for education and research; and military/defense satellites.

Loading next visibility...
Identifier
68946, 2026-098AD
Orbit
LEO
Country
Flag of USUS
Related business
Manufacturer
Kuiper Systems
Mission
Operational spacecraft
Bus & Motor
KUIPER, Unknown motor
Mass
~490 kg wet, ~490 kg dry
Launch date (UTC)
2026-04-30 (2 months ago)
Launch vehicle
ARIANE 64
Launch site
French Guiana (FRGUI)
Object type
Payload
Rocket body
Debris
Shape & HBR
Unknown shape, 3.4 m
Radar Cross Section
Large (>1 m²)

Expand to show TLE details & history
Last TLE update: 11 hours ago

TLE from 11 hours ago
0 KUIPER-00452
1 68946U 26098AD  26171.39375794  .00010035  00000-0  29342-3 0  9994
2 68946  51.8754  52.0004 0003696 147.2129 212.9087 15.35884166  7841
Epoch: 2026-06-20T09:27Z
TLE epoch observation values (Epoch: 2026-06-20T09:27:00.686Z)
Latitude
-0.00005°
Longitude
1.63849°
Altitude
461.18 km
Speed
7.636 km/s
True Right ascension
03h 28m 00s
True Declination
0° 00' 00"
Sunlit
Object was in daylight at epoch
Visualization orbit readout
Latitude
Unknown
Longitude
Unknown
Altitude
Unknown
Speed
Unknown
Apparent Right ascension
Unknown
Apparent Declination
Unknown
Sunlit
N/A
Visualization observer readout
Local Sidereal Time
07:20:58
Azimuth
Unknown
Elevation
Unknown
Doppler factor
Unknown
Orbital elements
Apogee altitude
461.289 km
Perigee altitude
456.235 km
Semi-major axis
6,836.899 km
Eccentricity
0.00037
Inclination
51.8754°
RAAN
52.0004°
Arg. of periapsis
147.2129°
True anomaly
212.8857°
Mean anomaly
212.9087°
Eccentric anomaly
212.8972°
Mean motion
3.83932 °/min
Orbital period
93.77 mins
BSTAR
0.00029342
Loading maneuver chart data...
Computing Atmospheric mass density...
Loading historical data...
Loading historical data...
Loading historical data...
Loading historical data...
Loading historical data...
Loading historical data...
Loading historical data...

Documentation

Showing up to 5 results
|